Tracking 28920 objects as of 24-May-2024
HD Live streaming from Space Station
objects crossing your sky now

ORBICRAFT-ZORKIY

Track ORBICRAFT-ZORKIY now!
10-day predictions
ORBICRAFT-ZORKIY is classified as:


NORAD ID: 47960
Int'l Code: 2021-022AE
Perigee: 484.0 km
Apogee: 501.1 km
Inclination: 97.5 °
Period: 94.3 minutes
Semi major axis: 6863 km
RCS: Unknown
Launch date: March 22, 2021
Source: (TBD)
Launch site: TYURATAM MISSILE AND SPACE COMPLEX (TTMTR)

Uplink (MHz):
Downlink (MHz): 437.850*/437.950/10465.000
Beacon (MHz):
Mode: 2k4/4k8*/9k6FSK SSTV
Call sign: RS15S
Status: Active

Your satellite tracking list
Your tracking list is empty




NASA's NSSDC Master Catalog

Two Line Element Set (TLE):
1 47960U 21022AE  24145.17198513  .00025594  00000-0  97039-3 0  9990
2 47960  97.4678  45.0408 0012476 208.9296 151.1253 15.26787839174495
Source of the keplerian elements: AMSAT